Date,TemperatureHighF,TemperatureAvgF,TemperatureLowF,DewpointHighF,DewpointAvgF,DewpointLowF,HumidityHigh,HumidityAvg,HumidityLow,PressureMaxIn,PressureMinIn,WindSpeedMaxMPH,WindSpeedAvgMPH,GustSpeedMaxMPH,PrecipitationSumIn
2013-9-1,78.8,78.3,77.9,77.2,76.9,76.7,96,96,94,29.93,29.93,0,0,1,0.02
2013-9-2,93.0,79.8,74.8,80.4,76.2,73.5,99,90,57,29.93,29.93,11,0,17,0.47
2013-9-3,91.2,80.7,73.2,81.3,76.3,72.3,99,87,67,29.93,29.93,8,1,11,0.04
2013-9-4,87.8,82.4,78.3,81.0,78.1,76.7,96,87,75,29.93,29.93,7,1,9,0.02
2013-9-5,90.1,83.7,78.8,80.1,77.6,75.5,94,83,64,29.93,29.93,9,1,12,0.00
2013-9-6,94.6,85.4,78.1,81.1,77.2,74.3,96,78,53,29.93,29.93,8,1,11,0.00
2013-9-7,87.3,79.5,74.1,78.6,75.8,72.4,98,89,66,29.93,29.93,10,1,15,0.22
2013-9-8,90.0,78.5,73.8,78.8,75.3,73.0,99,91,61,29.93,29.93,8,1,12,0.54
2013-9-9,91.2,82.4,74.1,79.0,75.7,73.2,98,82,61,29.93,29.93,8,2,13,0.00
2013-9-10,91.2,82.2,76.8,80.1,76.2,72.6,95,83,56,29.93,29.93,11,2,17,0.12
2013-9-11,82.6,79.4,74.5,79.5,75.8,72.9,97,89,81,29.93,29.93,10,1,15,0.91
2013-9-12,85.5,80.4,75.9,79.8,76.8,74.4,97,89,77,29.93,29.93,5,1,9,0.00
2013-9-13,93.9,83.2,74.7,78.8,75.5,72.2,99,80,53,29.93,29.93,7,1,11,0.00
2013-9-14,94.3,84.7,77.0,78.8,75.6,71.2,95,76,48,29.93,29.93,8,2,12,0.00
2013-9-15,86.7,80.7,77.2,80.1,77.0,73.1,94,89,78,29.93,29.93,8,1,15,0.18
2013-9-16,84.2,79.8,77.2,80.0,77.2,73.5,98,92,83,29.93,29.93,11,2,19,0.27
2013-9-17,83.1,79.5,75.6,78.7,76.3,74.3,98,90,84,29.93,29.93,8,2,14,0.55
2013-9-18,88.2,80.2,75.6,79.0,76.2,72.6,98,88,71,29.93,29.93,8,1,11,0.24
2013-9-19,90.7,81.1,74.7,79.9,76.0,73.7,99,86,64,29.93,29.93,10,2,18,0.03
2013-9-20,88.9,81.0,73.8,75.7,73.1,68.8,97,79,54,29.93,29.93,9,2,13,0.01
2013-9-21,90.1,81.7,74.3,76.7,74.8,72.8,95,81,62,29.93,29.93,7,2,11,0.06
2013-9-22,92.5,83.4,75.7,79.0,76.1,71.8,99,80,52,29.93,29.93,6,1,10,0.01
2013-9-23,87.1,80.8,78.1,80.2,77.8,74.9,96,91,77,29.93,29.93,5,0,12,0.32
2013-9-24,91.9,81.8,75.0,82.4,76.3,71.9,99,85,62,29.93,29.93,8,1,13,0.18
2013-9-25,87.6,80.6,75.2,80.8,76.1,72.5,96,86,70,29.93,29.93,9,1,14,0.05
2013-9-26,88.9,81.1,77.5,82.2,77.9,75.3,96,90,74,29.93,29.93,10,1,17,0.13
2013-9-27,88.7,81.0,74.1,77.7,74.3,68.2,99,82,52,29.93,29.93,9,2,15,0.00
2013-9-28,89.6,80.9,73.8,77.2,74.4,71.2,97,82,61,29.93,29.93,9,2,14,0.52
2013-9-29,88.7,80.2,73.0,77.2,73.0,70.6,99,81,56,29.93,29.93,8,1,12,0.01
2013-9-30,89.8,81.6,73.4,75.8,72.9,71.3,96,76,56,29.93,29.93,9,2,12,0.00